Location: Zagreb
(45.8150°N, 15.9819°E)
Time: 14:30:53
(UTC+02:00)

STARLINK-1750 - Pass Details

Date: 20 September 2020
Orbit: 378 x 380 km, 53.0° (Epoch: 20 October)

Event Time Altitude Azimuth Distance (km) Brightness Sun altitude
Exits shadow 05:59:48 - 299° (WNW) 1,687 5.6 -7.9°
Reaches altitude 10° 06:00:40 10° 307° (NW) 1,398 5.3 -7.8°
Maximum altitude 06:03:07 21° 359° (N) 924 4.9 -7.4°
Drops below altitude 10° 06:05:36 10° 52° (NE) 1,399 6.8 -6.9°
Sets 06:07:58 0° 69° (ENE) 2,251 8.7 -6.5°
